Regional Weather Roundup
Issued by NWS

Home | Current Version | Previous Version | Graphics & Text | Print | Product List | Glossary On
Versions: 1 2 3 4 5 6 7 8 9 10 11 12 13 14 15 16 17 18 19 20 21 22 23 24 25 26 27 28 29 30 31 32 33 34 35 36 37 38 39 40 41 42 43 44 45 46 47 48 49 50
000
ASUS43 KMKX 231321
RWRWI

WISCONSIN REGIONAL WEATHER ROUNDUP
NATIONAL WEATHER SERVICE MILWAUKEE/SULLIVAN WI
800 AM CDT WED APR 23 2014

NOTE: "FAIR" INDICATES FEW OR NO CLOUDS BELOW 12,000 FEET WITH NO
SIGNIFICANT WEATHER AND/OR OBSTRUCTIONS TO VISIBILITY.

WIZ001-002-006>008-014>016-023>028-231400-
NORTHWEST WISCONSIN

CITY           SKY/WX    TMP DP  RH WIND       PRES   REMARKS
SUPERIOR ARPT  CLOUDY    33  29  85 NE6       30.15S WCI  27
ASHLAND        MOSUNNY   33  29  85 CALM      30.17S
HAYWARD        CLOUDY    34  28  79 CALM      30.14R
SIREN          CLOUDY    38  27  63 SE3       30.11S
RICE LAKE      PTSUNNY   36  28  71 E3        30.15S
LADYSMITH      PTSUNNY   36  29  74 E5        30.16S WCI  32
EAU CLAIRE     PTSUNNY   39  28  64 W3        30.14R
MENOMONIE      PTSUNNY   38  29  69 E7        30.14R WCI  33
NEW RICHMOND   CLOUDY    41  28  61 SE7       30.12R
OSCEOLA        CLOUDY    42  28  58 SE8       30.14R
$$

WIZ003>005-009-010-017-018-231400-
NORTH CENTRAL WISCONSIN

CITY           SKY/WX    TMP DP  RH WIND       PRES   REMARKS
WOODRUFF       PTSUNNY   33  23  67 CALM      30.15S
RHINELANDER    PTSUNNY   32  27  81 CALM      30.17R
EAGLE RIVER    MOSUNNY   32  29  88 CALM      30.15S
LAND O LAKES   MOSUNNY   31  28  86 CALM      30.17R
PHILLIPS       CLOUDY    35  28  75 E3        30.14S
TOMAHAWK       PTSUNNY   31  29  92 CALM      30.16S
MEDFORD        PTSUNNY   36  26  69 E6        30.14S WCI  31
MERRILL        PTSUNNY   31  28  91 E3        30.15F
$$

WIZ029-030-035-036-043>047-231400-
CENTRAL WISCONSIN

CITY           SKY/WX    TMP DP  RH WIND       PRES   REMARKS
WAUSAU         MOSUNNY   34  29  82 E3        30.15R
MOSINEE        SUNNY     36  30  80 E7        30.16S WCI  30
MARSHFIELD     PTSUNNY   36  28  73 SE7       30.15R WCI  30
STEVENS POINT  MOSUNNY   35  26  69 E8        30.17S WCI  29
WAUPACA        MOSUNNY   39  28  65 NE5       30.18S
WAUTOMA        PTSUNNY   38  28  67 E9        30.19R WCI  31
WISC RAPIDS    PTSUNNY   37  27  67 E5        30.18R WCI  33
CAMP DOUGLAS   MOSUNNY   37  33  85 E2        30.17R
$$

WIZ011>013-019>022-031-037>040-048>050-231400-
NORTHEAST WISCONSIN

CITY           SKY/WX    TMP DP  RH WIND       PRES   REMARKS
ANTIGO         MOSUNNY   32  30  91 NE5       30.17R WCI  27
STURGEON BAY   SUNNY     36  27  69 N14       30.18S WCI  27
GREEN BAY      MOSUNNY   37  28  70 NW5       30.20R WCI  33
MANITOWOC      MOSUNNY   37  28  70 N7        30.19R WCI  32
APPLETON       MOSUNNY   34  27  75 NE6       30.19R WCI  29
CLINTONVILLE   MOSUNNY   36  30  80 NE6       30.19S WCI  31
OSHKOSH        MOSUNNY   38  27  64 E8        30.17R WCI  32
$$

WIZ032>034-041-042-053>061-231400-
SOUTHWEST WISCONSIN

CITY           SKY/WX    TMP DP  RH WIND       PRES   REMARKS
LA CROSSE      MOSUNNY   41  28  60 E5        30.16R
SPARTA         PTSUNNY   38  31  74 CALM      30.17R
VIROQUA        FAIR      38  28  67 SE8       30.15R WCI  33
BOSCOBEL       MOSUNNY   39  34  82 CALM      30.18R
PRAIRIE DU CHI MOSUNNY   42  30  62 E5        30.17R
PLATTEVILLE    FAIR      39  30  70 SE6       30.18R WCI  35
$$

WIZ056-057-062-063-064-067-068-231400-
SOUTH CENTRAL WISCONSIN

CITY           SKY/WX    TMP DP  RH WIND       PRES   REMARKS
BARABOO/DELLS  SUNNY     39  28  64 E8        30.16S WCI  34
LONE ROCK      SUNNY     39  31  72 NE5       30.18R
WATERTOWN      SUNNY     37  30  78 CALM      30.17R
MADISON        MOSUNNY   40  30  67 E5        30.18R
MIDDLETON      FAIR      42  30  63 E8        30.17S
MONROE         SUNNY     38  35  89 E5        30.16R WCI  34
JANESVILLE     SUNNY     37  30  75 E6        30.16S WCI  33
$$

WIZ051-052-058>065-066-070>072-231400-
SOUTHEAST WISCONSIN

CITY           SKY/WX    TMP DP  RH WIND       PRES   REMARKS
MILWAUKEE      MOSUNNY   38  28  67 N9        30.17S WCI  31
WAUKESHA       SUNNY     36  28  75 CALM      30.18R
MILWAUKEE/TIMM SUNNY     36  27  69 NE8       30.18S WCI  29
RACINE         SUNNY     39  28  64 NE14      30.18R WCI  31
BURLINGTON     SUNNY     34  30  86 CALM      30.17R
KENOSHA        SUNNY     38  30  73 VRB6      30.17R WCI  33
FOND DU LAC    SUNNY     38  27  64 NE6       30.17R WCI  33
SHEBOYGAN      MOSUNNY   37  28  70 N6        30.18R WCI  32
WEST BEND      SUNNY     36  27  69 NE6       30.17S WCI  31
JUNEAU         SUNNY     37  28  68 CALM      30.19R
$$

LSZ147-162-231400-
LAKE SUPERIOR

STATION/POSITION TIME  TEMP    WIND        PRES    WAVE
                       AIR SEA DIR/SP/G            HT/PER
                 (UTC) (F)     (DEG/KT/KT) (MB)    (FT/S)
DEVILS ISLAND    1300   34     110/  6/  7 1022.5R
PORT WING        1240   30     180/  1/  2 1021.3R
SAXON HARBOR     1200             CALM     1021.3
$$

LMZ867-665-643>646-231400-
LAKE MICHIGAN

STATION/POSITION TIME  TEMP    WIND        PRES    WAVE
                       AIR SEA DIR/SP/G            HT/PER
                 (UTC) (F)     (DEG/KT/KT) (MB)    (FT/S)
NORTHPORT PIER   1200   31     300/  7/  9 1021.7R
SISTER BAY       1209   36        CALM       N/A
KEWAUNEE LAKESHO 1300   37     340/  6/  8 1022.6R
SHEBOYGAN LAKESH 1300   38     360/ 10/ 12 1022.8R
PORT WASHINGTON  1100   34     350/  4/  8 1022.0
MILWAUKEE LAKESH 1300   37      20/ 12/ 15   N/A
KENOSHA   LAKESH 1300   38      20/ 14/ 16   N/A
$$

TC  - TEMPERATURE IN CELSIUS
VSB - VISIBILITY IN STATUTE MILES
WCI - WIND CHILL INDEX
HX  - HEAT INDEX




USA.gov is the U.S. government's official web portal to all federal, state and local government web resources and services.